TimePST,TemperatureF,Dew PointF,Humidity,Sea Level PressureIn,VisibilityMPH,Wind Direction,Wind SpeedMPH,Gust SpeedMPH,PrecipitationIn,Events,Conditions,WindDirDegrees,DateUTC
12:53 AM,39.9,35.1,83,29.66,10.0,ENE,4.6,-,N/A,,Mostly Cloudy,70,2012-12-22 08:53:00
1:53 AM,39.0,35.1,86,29.65,10.0,ENE,8.1,-,N/A,,Mostly Cloudy,70,2012-12-22 09:53:00
2:53 AM,42.1,34.0,73,29.61,10.0,East,9.2,-,N/A,,Mostly Cloudy,90,2012-12-22 10:53:00
3:53 AM,41.0,34.0,76,29.59,10.0,NE,3.5,-,N/A,,Overcast,50,2012-12-22 11:53:00
4:53 AM,44.1,33.1,65,29.56,10.0,East,6.9,-,N/A,,Mostly Cloudy,90,2012-12-22 12:53:00
5:53 AM,39.9,35.1,83,29.55,10.0,NW,4.6,-,N/A,,Overcast,320,2012-12-22 13:53:00
6:53 AM,44.1,34.0,68,29.54,10.0,East,9.2,-,0.01,Rain,Light Rain,100,2012-12-22 14:53:00
7:53 AM,44.1,35.1,71,29.52,10.0,ESE,6.9,-,0.02,Rain,Light Rain,110,2012-12-22 15:53:00
8:53 AM,42.1,37.9,85,29.53,10.0,Calm,Calm,-,0.03,Rain,Light Rain,0,2012-12-22 16:53:00
9:43 AM,42.8,39.2,87,29.52,8.0,WSW,4.6,-,0.02,Rain,Light Rain,240,2012-12-22 17:43:00
9:53 AM,42.1,39.0,89,29.56,1.5,SSW,6.9,-,0.02,Rain,Light Rain,210,2012-12-22 17:53:00
10:02 AM,42.8,39.2,87,29.54,6.0,SW,4.6,-,0.01,Rain,Light Rain,230,2012-12-22 18:02:00
10:53 AM,42.1,39.9,92,29.56,7.0,SSE,3.5,-,0.02,,Overcast,160,2012-12-22 18:53:00
11:53 AM,43.0,39.0,86,29.57,10.0,SSE,4.6,-,N/A,,Mostly Cloudy,150,2012-12-22 19:53:00
12:53 PM,46.0,39.0,76,29.56,10.0,South,6.9,-,N/A,,Mostly Cloudy,180,2012-12-22 20:53:00
1:53 PM,46.0,37.9,73,29.56,10.0,South,9.2,-,0.00,Rain,Light Rain,180,2012-12-22 21:53:00
2:53 PM,46.0,37.0,71,29.57,10.0,South,9.2,-,0.00,,Mostly Cloudy,180,2012-12-22 22:53:00
3:53 PM,46.0,34.0,63,29.60,10.0,South,17.3,28.8,N/A,,Overcast,190,2012-12-22 23:53:00
4:53 PM,43.0,36.0,76,29.64,10.0,South,12.7,21.9,0.01,,Mostly Cloudy,190,2012-12-23 00:53:00
5:53 PM,43.0,34.0,71,29.65,10.0,South,9.2,-,N/A,,Mostly Cloudy,180,2012-12-23 01:53:00
6:53 PM,43.0,33.1,68,29.67,10.0,SSE,10.4,-,N/A,,Mostly Cloudy,160,2012-12-23 02:53:00
7:53 PM,44.1,35.1,71,29.70,10.0,SSW,12.7,-,0.00,Rain,Light Rain,200,2012-12-23 03:53:00
8:53 PM,43.0,35.1,74,29.72,10.0,South,6.9,-,0.00,Rain,Light Rain,180,2012-12-23 04:53:00
9:53 PM,42.1,36.0,79,29.73,10.0,South,9.2,-,0.02,Rain,Light Rain,190,2012-12-23 05:53:00
10:53 PM,41.0,35.1,79,29.75,10.0,South,9.2,-,0.00,,Mostly Cloudy,180,2012-12-23 06:53:00
11:53 PM,39.9,34.0,79,29.76,10.0,SSW,6.9,-,N/A,,Mostly Cloudy,200,2012-12-23 07:53:00